Location: ????????
(38.4362°N, 22.8767°E)
Time: 08:51:23
(UTC+00:00)

BREEZE-M DEB (TANK) - Visible Passes

Search period start: 24 July 2024 00:00
Search period end: 03 August 2024 00:00
Orbit: 309 x 14641 km, 49.5° (Epoch: 23 July)

Date Brightness Start Highest point End Pass type
(mag) Time Alt. Az. Time Alt. Az. Time Alt. Az.
24 Jul 5.5 21:19:06 10° WNW 21:24:14 43° SSW 21:24:31 43° SSW visible
25 Jul 4.0 19:48:38 10° NW 19:52:14 90° NNW 19:56:40 30° SE visible
26 Jul 4.5 18:18:42 10° NNW 18:21:16 29° NE 18:26:53 10° E visible
26 Jul7.223:41:28S23:41:28S22:59:13WSWvisible
27 Jul 6.0 21:26:46 10° W 21:31:18 33° SW 21:31:18 33° SW visible
28 Jul 4.3 19:55:48 10° WNW 19:59:37 67° SW 20:03:22 35° SE visible
29 Jul 4.1 18:25:33 10° NW 18:28:20 42° NE 18:35:23 10° ESE visible
30 Jul 6.4 21:34:11 10° W 21:37:47 24° SW 21:37:47 24° SW visible
31 Jul 4.9 20:02:33 10° WNW 20:06:38 50° SSW 20:09:44 35° SSE visible
01 Aug 3.7 18:31:56 10° NW 18:34:53 62° NE 18:41:40 14° ESE visible
02 Aug 6.8 21:41:30 10° WSW 21:43:57 17° WSW 21:43:57 17° WSW visible
